Hlavní strana
METAR-TAF:

METAR-TAF

Letiště :

Taylorville Municipal Airport

Taylorville, Illinois, Spojené státy americké

zeměpisná šířka: 39-32-03N, zeměpisná délka: 089-19-40W, výška: 190 m

Aktuální stav počasí

Zpráva byla vytvořena před 28 minutami, v 23:15 UTC
Severní vítr 19 kt
Teplota 7°C
Vlhkost vzduchu 42%
Tlak 1024 hPa
Viditelnost: 16.1 km
Polojasno ve výšce 7000 ft

METAR: KTAZ 202315Z AUTO 35019KT 10SM SCT070 07/M05 A3025 RMK AO2 T00691055

Čas: 18:43 (23:43 UTC)


TAF: chybějící

Stav a předpovědi počasí z více než 4 000 letišť (zprávy METAR a TAF).

Červené a žluté tečky na mapě představují dostupné meteorologické stanice.

Když kurzor umístíte na tečku, zobrazí se název stanice.

Pak kliknutím zobrazíte stav a předpověď počasí.

Chcete-li změnit mapu, kliknutím na zelené tlačítko se znaménkem +mapu přiblížíte, kliknutím na zelené tlačítko se znaménkem – mapu oddálíte a kliknutím na zelené šipky přejdete na sousední mapy.


METAR-TAF: